ITF-2 (41932 NORAD) Tracking and Keplerian Element Data

This shows tracking and keplerian element data for the satellite.

Feedback or suggestion? Click here.




ElementValue
Catalog41932
NameITF-2
Epoch Orbit11002
Epoch Day352.55434011
Epoch Year2018
RAAN97.1146
Inclination51.6222
Eccentricity0.000518
Argument of Perigee328.5484
Mean Anonmoly31.5219
Mean Motion16.06903804
Decay Rate0.00336892
L11 41932U 98067KU 18352.55434011 .00336892 64283-4 42593-3 0 9995
L22 41932 51.6222 97.1146 0005180 328.5484 31.5219 16.06903804110027

Live tracking and technical data element details for ITF-2 (NORAD 41932). ITF-2 can be tracked NOW for your location showing map with azimuth and elevation plus other details from your city location.

Track the satellite on the map from your city or location and see movement details for azimuth, elevation, latitude, longitude, range, height, and movement on the map or in text.







IsCatalogInMostPopularTable: catalog: 41932, numindb: 123
Update: records affected: 1



GetName: 41932 ITF-2

Hit Count: updated at: Wed, 19 Dec 2018 15:24:39 GMT